Volver al catálogo

CZ-4 DEB

ActivoSSO
NORAD 20892·DEBRIS·🇨🇳 China

Lanzado Sep 3, 1990 desde Taiyuan Satellite Launch Center

Loading…

Próximos Pases (próximas 24 horas)

TLE

ActualizadoSource: Space-Track

Época: Sep 13, 2026, 11:26 UTC

1 20892U 90081BC  26256.47655715  .00000551  00000-0  48587-3 0  9996
2 20892  98.8995  87.9455 0160162  94.1822 296.9879 13.83434131802855

Sigue CZ-4 DEB en tiempo real con AllMySat

Download on the App Store